station,date_time,longitude_east,latitude_north,depth,sw_sal,sw_sal_result_value_qualifier,sea_water_temperature,sea_water_temperature_result_value_qualifier,sea_water_pressure,sea_water_pressure_result_value_qualifier,KD_PAR,KD_PAR_result_value_qualifier
CH3-8,2019-08-28T20:00:00Z,-79.08,53.94,3.56,13.82,,11.01,,, NC,, NC
CH3-8,2019-08-28T21:00:00Z,-79.08,53.94,3.56,12.62,,11.96,,, NC,, NC
CH3-8,2019-08-28T22:00:00Z,-79.08,53.94,3.56,12.96,,11.62,,, NC,, NC
CH3-8,2019-08-28T23:00:00Z,-79.08,53.94,3.56,11.01,,13.93,,, NC,, NC
CH3-8,2019-08-29T00:00:00Z,-79.08,53.94,3.56,10.40,,14.75,,, NC,, NC
CH3-8,2019-08-29T01:00:00Z,-79.08,53.94,3.56,11.39,,14.42,,, NC,, NC
CH3-8,2019-08-29T02:00:00Z,-79.08,53.94,3.56,11.15,,14.66,,, NC,, NC
CH3-8,2019-08-29T03:00:00Z,-79.08,53.94,3.56,12.48,,12.13,,, NC,, NC
CH3-8,2019-08-29T04:00:00Z,-79.08,53.94,3.56,12.69,,12.16,,, NC,, NC
CH3-8,2019-08-29T05:00:00Z,-79.08,53.94,3.56,13.95,,10.69,,, NC,, NC
CH3-8,2019-08-29T06:00:00Z,-79.08,53.94,3.56,13.44,,11.16,,, NC,, NC
CH3-8,2019-08-29T07:00:00Z,-79.08,53.94,3.56,12.12,,12.43,,, NC,, NC
CH3-8,2019-08-29T08:00:00Z,-79.08,53.94,3.56,12.43,,12.21,,, NC,, NC
CH3-8,2019-08-29T09:00:00Z,-79.08,53.94,3.56,12.17,,12.49,,, NC,, NC
CH3-8,2019-08-29T10:00:00Z,-79.08,53.94,3.56,12.57,,12.09,,, NC,, NC
CH3-8,2019-08-29T11:00:00Z,-79.08,53.94,3.56,11.26,,13.51,,, NC,, NC
CH3-8,2019-08-29T12:00:00Z,-79.08,53.94,3.56,11.42,,13.75,,, NC,, NC
CH3-8,2019-08-29T13:00:00Z,-79.08,53.94,3.56,10.71,,14.11,,, NC,, NC
CH3-8,2019-08-29T14:00:00Z,-79.08,53.94,3.56,10.89,,14.40,,, NC,, NC
CH3-8,2019-08-29T15:00:00Z,-79.08,53.94,3.56,11.08,,14.39,,, NC,, NC
CH3-8,2019-08-29T16:00:00Z,-79.08,53.94,3.56,11.29,,14.31,,, NC,, NC
CH3-8,2019-08-29T17:00:00Z,-79.08,53.94,3.56,12.89,,11.82,,, NC,, NC
CH3-8,2019-08-29T18:00:00Z,-79.08,53.94,3.56,12.15,,12.50,,, NC,, NC
CH3-8,2019-08-29T19:00:00Z,-79.08,53.94,3.56,12.69,,11.94,,, NC,, NC
CH3-8,2019-08-29T20:00:00Z,-79.08,53.94,3.56,11.84,,12.55,,, NC,, NC
CH3-8,2019-08-29T21:00:00Z,-79.08,53.94,3.56,11.19,,12.93,,, NC,, NC
CH3-8,2019-08-29T22:00:00Z,-79.08,53.94,3.56,11.16,,13.02,,, NC,, NC
CH3-8,2019-08-29T23:00:00Z,-79.08,53.94,3.56,11.42,,12.93,,, NC,, NC
CH3-8,2019-08-30T00:00:00Z,-79.08,53.94,3.56,10.75,,13.29,,, NC,, NC
CH3-8,2019-08-30T01:00:00Z,-79.08,53.94,3.56,11.02,,13.62,,, NC,, NC
CH3-8,2019-08-30T02:00:00Z,-79.08,53.94,3.56,10.68,,13.58,,, NC,, NC
CH3-8,2019-08-30T03:00:00Z,-79.08,53.94,3.56,10.95,,13.68,,, NC,, NC
CH3-8,2019-08-30T04:00:00Z,-79.08,53.94,3.56,11.53,,13.55,,, NC,, NC
CH3-8,2019-08-30T05:00:00Z,-79.08,53.94,3.56,11.67,,13.37,,, NC,, NC
CH3-8,2019-08-30T06:00:00Z,-79.08,53.94,3.56,12.56,,11.89,,, NC,, NC
CH3-8,2019-08-30T07:00:00Z,-79.08,53.94,3.56,11.86,,12.29,,, NC,, NC
CH3-8,2019-08-30T08:00:00Z,-79.08,53.94,3.56,11.45,,12.49,,, NC,, NC
CH3-8,2019-08-30T09:00:00Z,-79.08,53.94,3.56,11.04,,12.58,,, NC,, NC
CH3-8,2019-08-30T10:00:00Z,-79.08,53.94,3.56,11.15,,12.62,,, NC,, NC
CH3-8,2019-08-30T11:00:00Z,-79.08,53.94,3.56,11.32,,12.67,,, NC,, NC
CH3-8,2019-08-30T12:00:00Z,-79.08,53.94,3.56,11.42,,13.00,,, NC,, NC
CH3-8,2019-08-30T13:00:00Z,-79.08,53.94,3.56,11.32,,13.26,,, NC,, NC
CH3-8,2019-08-30T14:00:00Z,-79.08,53.94,3.56,10.81,,12.93,,, NC,, NC
CH3-8,2019-08-30T15:00:00Z,-79.08,53.94,3.56,10.88,,13.13,,, NC,, NC
CH3-8,2019-08-30T16:00:00Z,-79.08,53.94,3.56,10.29,,13.08,,, NC,, NC
CH3-8,2019-08-30T17:00:00Z,-79.08,53.94,3.56,10.16,,12.65,,, NC,, NC
CH3-8,2019-08-30T18:00:00Z,-79.08,53.94,3.56,10.60,,12.51,,, NC,, NC
CH3-8,2019-08-30T19:00:00Z,-79.08,53.94,3.56,10.54,,12.36,,, NC,, NC
CH3-8,2019-08-30T20:00:00Z,-79.08,53.94,3.56,10.22,,12.21,,, NC,, NC
CH3-8,2019-08-30T21:00:00Z,-79.08,53.94,3.56,10.45,,12.10,,, NC,, NC
CH3-8,2019-08-30T22:00:00Z,-79.08,53.94,3.56,10.66,,12.10,,, NC,, NC
CH3-8,2019-08-30T23:00:00Z,-79.08,53.94,3.56,10.87,,11.92,,, NC,, NC
CH3-8,2019-08-31T00:00:00Z,-79.08,53.94,3.56,10.58,,11.89,,, NC,, NC
CH3-8,2019-08-31T01:00:00Z,-79.08,53.94,3.56,10.57,,11.79,,, NC,, NC
CH3-8,2019-08-31T02:00:00Z,-79.08,53.94,3.56,10.49,,11.64,,, NC,, NC
CH3-8,2019-08-31T03:00:00Z,-79.08,53.94,3.56,10.53,,11.55,,, NC,, NC
CH3-8,2019-08-31T04:00:00Z,-79.08,53.94,3.56,10.53,,11.50,,, NC,, NC
CH3-8,2019-08-31T05:00:00Z,-79.08,53.94,3.56,10.51,,11.35,,, NC,, NC
CH3-8,2019-08-31T06:00:00Z,-79.08,53.94,3.56,10.40,,11.15,,, NC,, NC
CH3-8,2019-08-31T07:00:00Z,-79.08,53.94,3.56,10.31,,11.10,,, NC,, NC
CH3-8,2019-08-31T08:00:00Z,-79.08,53.94,3.56,10.38,,11.06,,, NC,, NC
CH3-8,2019-08-31T09:00:00Z,-79.08,53.94,3.56,10.33,,10.71,,, NC,, NC
CH3-8,2019-08-31T10:00:00Z,-79.08,53.94,3.56,10.33,,10.87,,, NC,, NC
CH3-8,2019-08-31T11:00:00Z,-79.08,53.94,3.56,10.49,,10.98,,, NC,, NC
CH3-8,2019-08-31T12:00:00Z,-79.08,53.94,3.56,10.41,,10.89,,, NC,, NC
CH3-8,2019-08-31T13:00:00Z,-79.08,53.94,3.56,10.38,,10.93,,, NC,, NC
CH3-8,2019-08-31T14:00:00Z,-79.08,53.94,3.56,10.39,,10.99,,, NC,, NC
CH3-8,2019-08-31T15:00:00Z,-79.08,53.94,3.56,10.39,,10.96,,, NC,, NC
CH3-8,2019-08-31T16:00:00Z,-79.08,53.94,3.56,10.38,,11.07,,, NC,, NC
CH3-8,2019-08-31T17:00:00Z,-79.08,53.94,3.56,10.47,,11.20,,, NC,, NC
CH3-8,2019-08-31T18:00:00Z,-79.08,53.94,3.56,10.53,,11.25,,, NC,, NC
CH3-8,2019-08-31T19:00:00Z,-79.08,53.94,3.56,10.47,,11.27,,, NC,, NC
CH3-8,2019-08-31T20:00:00Z,-79.08,53.94,3.56,10.39,,11.23,,, NC,, NC
CH3-8,2019-08-31T21:00:00Z,-79.08,53.94,3.56,10.41,,11.25,,, NC,, NC
CH3-8,2019-08-31T22:00:00Z,-79.08,53.94,3.56,10.42,,11.18,,, NC,, NC
CH3-8,2019-08-31T23:00:00Z,-79.08,53.94,3.56,10.42,,11.13,,, NC,, NC
CH3-8,2019-09-01T00:00:00Z,-79.08,53.94,3.56,10.34,,10.93,,, NC,, NC
CH3-8,2019-09-01T01:00:00Z,-79.08,53.94,3.56,10.40,,10.99,,, NC,, NC
CH3-8,2019-09-01T02:00:00Z,-79.08,53.94,3.56,10.42,,10.91,,, NC,, NC
CH3-8,2019-09-01T03:00:00Z,-79.08,53.94,3.56,10.41,,10.83,,, NC,, NC
CH3-8,2019-09-01T04:00:00Z,-79.08,53.94,3.56,10.42,,10.76,,, NC,, NC
CH3-8,2019-09-01T05:00:00Z,-79.08,53.94,3.56,10.42,,10.67,,, NC,, NC
CH3-8,2019-09-01T06:00:00Z,-79.08,53.94,3.56,10.41,,10.77,,, NC,, NC
CH3-8,2019-09-01T07:00:00Z,-79.08,53.94,3.56,10.52,,10.94,,, NC,, NC
CH3-8,2019-09-01T08:00:00Z,-79.08,53.94,3.56,10.44,,10.77,,, NC,, NC
CH3-8,2019-09-01T09:00:00Z,-79.08,53.94,3.56,10.40,,10.72,,, NC,, NC
CH3-8,2019-09-01T10:00:00Z,-79.08,53.94,3.56,10.40,,10.69,,, NC,, NC
CH3-8,2019-09-01T11:00:00Z,-79.08,53.94,3.56,10.40,,10.67,,, NC,, NC
CH3-8,2019-09-01T12:00:00Z,-79.08,53.94,3.56,10.38,,10.63,,, NC,, NC
CH3-8,2019-09-01T13:00:00Z,-79.08,53.94,3.56,10.35,,10.74,,, NC,, NC
CH3-8,2019-09-01T14:00:00Z,-79.08,53.94,3.56,10.36,,11.10,,, NC,, NC
CH3-8,2019-09-01T15:00:00Z,-79.08,53.94,3.56,10.37,,11.40,,, NC,, NC
CH3-8,2019-09-01T16:00:00Z,-79.08,53.94,3.56,10.36,,11.65,,, NC,, NC
CH3-8,2019-09-01T17:00:00Z,-79.08,53.94,3.56,10.38,,11.66,,, NC,, NC
CH3-8,2019-09-01T18:00:00Z,-79.08,53.94,3.56,10.55,,11.31,,, NC,, NC
CH3-8,2019-09-01T19:00:00Z,-79.08,53.94,3.56,10.51,,11.38,,, NC,, NC
CH3-8,2019-09-01T20:00:00Z,-79.08,53.94,3.56,10.37,,11.35,,, NC,, NC
CH3-8,2019-09-01T21:00:00Z,-79.08,53.94,3.56,10.35,,11.27,,, NC,, NC
CH3-8,2019-09-01T22:00:00Z,-79.08,53.94,3.56,10.40,,11.28,,, NC,, NC
CH3-8,2019-09-01T23:00:00Z,-79.08,53.94,3.56,10.35,,11.27,,, NC,, NC
CH3-8,2019-09-02T00:00:00Z,-79.08,53.94,3.56,10.42,,11.27,,, NC,, NC
CH3-8,2019-09-02T01:00:00Z,-79.08,53.94,3.56,10.31,,11.27,,, NC,, NC
CH3-8,2019-09-02T02:00:00Z,-79.08,53.94,3.56,10.12,,11.18,,, NC,, NC
CH3-8,2019-09-02T03:00:00Z,-79.08,53.94,3.56,10.32,,11.15,,, NC,, NC
CH3-8,2019-09-02T04:00:00Z,-79.08,53.94,3.56,10.30,,11.10,,, NC,, NC
CH3-8,2019-09-02T05:00:00Z,-79.08,53.94,3.56,10.33,,11.04,,, NC,, NC
CH3-8,2019-09-02T06:00:00Z,-79.08,53.94,3.56,9.80,,10.74,,, NC,, NC
CH3-8,2019-09-02T07:00:00Z,-79.08,53.94,3.56,10.00,,10.57,,, NC,, NC
CH3-8,2019-09-02T08:00:00Z,-79.08,53.94,3.56,9.70,,10.52,,, NC,, NC
CH3-8,2019-09-02T09:00:00Z,-79.08,53.94,3.56,9.67,,10.48,,, NC,, NC
CH3-8,2019-09-02T10:00:00Z,-79.08,53.94,3.56,9.56,,10.28,,, NC,, NC
CH3-8,2019-09-02T11:00:00Z,-79.08,53.94,3.56,9.22,,10.09,,, NC,, NC
CH3-8,2019-09-02T12:00:00Z,-79.08,53.94,3.56,9.24,,10.04,,, NC,, NC
CH3-8,2019-09-02T13:00:00Z,-79.08,53.94,3.56,9.26,,10.13,,, NC,, NC
CH3-8,2019-09-02T14:00:00Z,-79.08,53.94,3.56,9.28,,10.05,,, NC,, NC
CH3-8,2019-09-02T15:00:00Z,-79.08,53.94,3.56,9.26,,10.00,,, NC,, NC
CH3-8,2019-09-02T16:00:00Z,-79.08,53.94,3.56,9.26,,10.04,,, NC,, NC
CH3-8,2019-09-02T17:00:00Z,-79.08,53.94,3.56,9.49,,10.12,,, NC,, NC
CH3-8,2019-09-02T18:00:00Z,-79.08,53.94,3.56,9.61,,10.09,,, NC,, NC
CH3-8,2019-09-02T19:00:00Z,-79.08,53.94,3.56,9.80,,10.09,,, NC,, NC
CH3-8,2019-09-02T20:00:00Z,-79.08,53.94,3.56,9.49,,9.86,,, NC,, NC
CH3-8,2019-09-02T21:00:00Z,-79.08,53.94,3.56,9.48,,9.75,,, NC,, NC
CH3-8,2019-09-02T22:00:00Z,-79.08,53.94,3.56,9.46,,9.59,,, NC,, NC
CH3-8,2019-09-02T23:00:00Z,-79.08,53.94,3.56,9.44,,9.57,,, NC,, NC
CH3-8,2019-09-03T00:00:00Z,-79.08,53.94,3.56,9.45,,9.61,,, NC,, NC
CH3-8,2019-09-03T01:00:00Z,-79.08,53.94,3.56,9.48,,9.56,,, NC,, NC
CH3-8,2019-09-03T02:00:00Z,-79.08,53.94,3.56,9.58,,9.57,,, NC,, NC
CH3-8,2019-09-03T03:00:00Z,-79.08,53.94,3.56,9.52,,9.24,,, NC,, NC
CH3-8,2019-09-03T04:00:00Z,-79.08,53.94,3.56,9.58,,9.27,,, NC,, NC
CH3-8,2019-09-03T05:00:00Z,-79.08,53.94,3.56,9.53,,9.24,,, NC,, NC
CH3-8,2019-09-03T06:00:00Z,-79.08,53.94,3.56,9.51,,9.20,,, NC,, NC
CH3-8,2019-09-03T07:00:00Z,-79.08,53.94,3.56,9.70,,9.24,,, NC,, NC
CH3-8,2019-09-03T08:00:00Z,-79.08,53.94,3.56,9.69,,9.19,,, NC,, NC
CH3-8,2019-09-03T09:00:00Z,-79.08,53.94,3.56,9.64,,9.03,,, NC,, NC
CH3-8,2019-09-03T10:00:00Z,-79.08,53.94,3.56,9.62,,9.01,,, NC,, NC
CH3-8,2019-09-03T11:00:00Z,-79.08,53.94,3.56,9.63,,8.95,,, NC,, NC
CH3-8,2019-09-03T12:00:00Z,-79.08,53.94,3.56,9.64,,9.15,,, NC,, NC
CH3-8,2019-09-03T13:00:00Z,-79.08,53.94,3.56,9.78,,9.17,,, NC,, NC
CH3-8,2019-09-03T14:00:00Z,-79.08,53.94,3.56,9.77,,9.29,,, NC,, NC
CH3-8,2019-09-03T15:00:00Z,-79.08,53.94,3.56,9.68,,9.41,,, NC,, NC
CH3-8,2019-09-03T16:00:00Z,-79.08,53.94,3.56,9.65,,9.64,,, NC,, NC
CH3-8,2019-09-03T17:00:00Z,-79.08,53.94,3.56,9.66,,9.61,,, NC,, NC
CH3-8,2019-09-03T18:00:00Z,-79.08,53.94,3.56,9.66,,9.56,,, NC,, NC
CH3-8,2019-09-03T19:00:00Z,-79.08,53.94,3.56,9.65,,9.57,,, NC,, NC
CH3-8,2019-09-03T20:00:00Z,-79.08,53.94,3.56,9.69,,9.50,,, NC,, NC
CH3-8,2019-09-03T21:00:00Z,-79.08,53.94,3.56,9.73,,9.57,,, NC,, NC
CH3-8,2019-09-03T22:00:00Z,-79.08,53.94,3.56,9.72,,9.54,,, NC,, NC
CH3-8,2019-09-03T23:00:00Z,-79.08,53.94,3.56,9.73,,9.46,,, NC,, NC
CH3-8,2019-09-04T00:00:00Z,-79.08,53.94,3.56,9.77,,9.42,,, NC,, NC
CH3-8,2019-09-04T01:00:00Z,-79.08,53.94,3.56,9.95,,9.39,,, NC,, NC
CH3-8,2019-09-04T02:00:00Z,-79.08,53.94,3.56,10.18,,9.39,,, NC,, NC
CH3-8,2019-09-04T03:00:00Z,-79.08,53.94,3.56,10.06,,9.41,,, NC,, NC
CH3-8,2019-09-04T04:00:00Z,-79.08,53.94,3.56,9.86,,9.27,,, NC,, NC
CH3-8,2019-09-04T05:00:00Z,-79.08,53.94,3.56,9.80,,9.11,,, NC,, NC
CH3-8,2019-09-04T06:00:00Z,-79.08,53.94,3.56,9.80,,8.92,,, NC,, NC
CH3-8,2019-09-04T07:00:00Z,-79.08,53.94,3.56,9.79,,8.92,,, NC,, NC
CH3-8,2019-09-04T08:00:00Z,-79.08,53.94,3.56,9.76,,9.03,,, NC,, NC
CH3-8,2019-09-04T09:00:00Z,-79.08,53.94,3.56,10.31,,9.06,,, NC,, NC
CH3-8,2019-09-04T10:00:00Z,-79.08,53.94,3.56,10.14,,9.05,,, NC,, NC
CH3-8,2019-09-04T11:00:00Z,-79.08,53.94,3.56,10.35,,9.01,,, NC,, NC
CH3-8,2019-09-04T12:00:00Z,-79.08,53.94,3.56,12.76,,8.73,,, NC,, NC
CH3-8,2019-09-04T13:00:00Z,-79.08,53.94,3.56,13.16,,8.63,,, NC,, NC
CH3-8,2019-09-04T14:00:00Z,-79.08,53.94,3.56,12.75,,8.80,,, NC,, NC
CH3-8,2019-09-04T15:00:00Z,-79.08,53.94,3.56,11.17,,9.05,,, NC,, NC
CH3-8,2019-09-04T16:00:00Z,-79.08,53.94,3.56,10.69,,9.20,,, NC,, NC
CH3-8,2019-09-04T17:00:00Z,-79.08,53.94,3.56,10.24,,9.39,,, NC,, NC
CH3-8,2019-09-04T18:00:00Z,-79.08,53.94,3.56,10.11,,9.64,,, NC,, NC
CH3-8,2019-09-04T19:00:00Z,-79.08,53.94,3.56,9.83,,9.57,,, NC,, NC
CH3-8,2019-09-04T20:00:00Z,-79.08,53.94,3.56,9.78,,9.74,,, NC,, NC
CH3-8,2019-09-04T21:00:00Z,-79.08,53.94,3.56,10.04,,9.52,,, NC,, NC
CH3-8,2019-09-04T22:00:00Z,-79.08,53.94,3.56,10.56,,9.44,,, NC,, NC
CH3-8,2019-09-04T23:00:00Z,-79.08,53.94,3.56,9.82,,9.54,,, NC,, NC
CH3-8,2019-09-05T00:00:00Z,-79.08,53.94,3.56,9.56,,9.57,,, NC,, NC
CH3-8,2019-09-05T01:00:00Z,-79.08,53.94,3.56,9.15,,9.54,,, NC,, NC
CH3-8,2019-09-05T02:00:00Z,-79.08,53.94,3.56,9.50,,9.54,,, NC,, NC
CH3-8,2019-09-05T03:00:00Z,-79.08,53.94,3.56,9.33,,9.49,,, NC,, NC
CH3-8,2019-09-05T04:00:00Z,-79.08,53.94,3.56,9.28,,9.57,,, NC,, NC
CH3-8,2019-09-05T05:00:00Z,-79.08,53.94,3.56,9.43,,9.65,,, NC,, NC
CH3-8,2019-09-05T06:00:00Z,-79.08,53.94,3.56,9.37,,9.59,,, NC,, NC
CH3-8,2019-09-05T07:00:00Z,-79.08,53.94,3.56,9.32,,9.55,,, NC,, NC
CH3-8,2019-09-05T08:00:00Z,-79.08,53.94,3.56,9.19,,9.50,,, NC,, NC
CH3-8,2019-09-05T09:00:00Z,-79.08,53.94,3.56,9.06,,9.35,,, NC,, NC
CH3-8,2019-09-05T10:00:00Z,-79.08,53.94,3.56,8.92,,9.31,,, NC,, NC
CH3-8,2019-09-05T11:00:00Z,-79.08,53.94,3.56,8.99,,9.31,,, NC,, NC
CH3-8,2019-09-05T12:00:00Z,-79.08,53.94,3.56,8.83,,9.39,,, NC,, NC
CH3-8,2019-09-05T13:00:00Z,-79.08,53.94,3.56,8.78,,9.46,,, NC,, NC
CH3-8,2019-09-05T14:00:00Z,-79.08,53.94,3.56,8.78,,9.55,,, NC,, NC
CH3-8,2019-09-05T15:00:00Z,-79.08,53.94,3.56,8.68,,9.65,,, NC,, NC
CH3-8,2019-09-05T16:00:00Z,-79.08,53.94,3.56,8.84,,9.45,,, NC,, NC
CH3-8,2019-09-05T17:00:00Z,-79.08,53.94,3.56,8.94,,9.47,,, NC,, NC
CH3-8,2019-09-05T18:00:00Z,-79.08,53.94,3.56,8.96,,9.57,,, NC,, NC
CH3-8,2019-09-05T19:00:00Z,-79.08,53.94,3.56,8.92,,9.65,,, NC,, NC
CH3-8,2019-09-05T20:00:00Z,-79.08,53.94,3.56,8.93,,9.66,,, NC,, NC
CH3-8,2019-09-05T21:00:00Z,-79.08,53.94,3.56,8.93,,9.61,,, NC,, NC
CH3-8,2019-09-05T22:00:00Z,-79.08,53.94,3.56,9.00,,9.56,,, NC,, NC
CH3-8,2019-09-05T23:00:00Z,-79.08,53.94,3.56,8.80,,9.55,,, NC,, NC
CH3-8,2019-09-06T00:00:00Z,-79.08,53.94,3.56,8.81,,9.54,,, NC,, NC
CH3-8,2019-09-06T01:00:00Z,-79.08,53.94,3.56,8.80,,9.50,,, NC,, NC
CH3-8,2019-09-06T02:00:00Z,-79.08,53.94,3.56,8.83,,9.40,,, NC,, NC
CH3-8,2019-09-06T03:00:00Z,-79.08,53.94,3.56,9.19,,9.35,,, NC,, NC
CH3-8,2019-09-06T04:00:00Z,-79.08,53.94,3.56,9.02,,9.31,,, NC,, NC
CH3-8,2019-09-06T05:00:00Z,-79.08,53.94,3.56,8.96,,9.31,,, NC,, NC
CH3-8,2019-09-06T06:00:00Z,-79.08,53.94,3.56,8.85,,9.16,,, NC,, NC
CH3-8,2019-09-06T07:00:00Z,-79.08,53.94,3.56,8.80,,9.16,,, NC,, NC
CH3-8,2019-09-06T08:00:00Z,-79.08,53.94,3.56,8.78,,9.14,,, NC,, NC
CH3-8,2019-09-06T09:00:00Z,-79.08,53.94,3.56,8.78,,9.22,,, NC,, NC
CH3-8,2019-09-06T10:00:00Z,-79.08,53.94,3.56,8.86,,9.26,,, NC,, NC
CH3-8,2019-09-06T11:00:00Z,-79.08,53.94,3.56,9.55,,9.16,,, NC,, NC
CH3-8,2019-09-06T12:00:00Z,-79.08,53.94,3.56,9.42,,9.14,,, NC,, NC
CH3-8,2019-09-06T13:00:00Z,-79.08,53.94,3.56,9.33,,9.20,,, NC,, NC
CH3-8,2019-09-06T14:00:00Z,-79.08,53.94,3.56,9.71,,9.11,,, NC,, NC
CH3-8,2019-09-06T15:00:00Z,-79.08,53.94,3.56,9.81,,9.10,,, NC,, NC
CH3-8,2019-09-06T16:00:00Z,-79.08,53.94,3.56,9.28,,9.20,,, NC,, NC
CH3-8,2019-09-06T17:00:00Z,-79.08,53.94,3.56,9.08,,9.34,,, NC,, NC
CH3-8,2019-09-06T18:00:00Z,-79.08,53.94,3.56,9.01,,9.36,,, NC,, NC
CH3-8,2019-09-06T19:00:00Z,-79.08,53.94,3.56,8.95,,9.42,,, NC,, NC
CH3-8,2019-09-06T20:00:00Z,-79.08,53.94,3.56,8.91,,9.47,,, NC,, NC
CH3-8,2019-09-06T21:00:00Z,-79.08,53.94,3.56,8.91,,9.50,,, NC,, NC
CH3-8,2019-09-06T22:00:00Z,-79.08,53.94,3.56,8.92,,9.47,,, NC,, NC
CH3-8,2019-09-06T23:00:00Z,-79.08,53.94,3.56,10.99,,8.95,,, NC,, NC
CH3-8,2019-09-07T00:00:00Z,-79.08,53.94,3.56,11.54,,9.01,,, NC,, NC
CH3-8,2019-09-07T01:00:00Z,-79.08,53.94,3.56,11.38,,9.02,,, NC,, NC
CH3-8,2019-09-07T02:00:00Z,-79.08,53.94,3.56,11.60,,9.01,,, NC,, NC
CH3-8,2019-09-07T03:00:00Z,-79.08,53.94,3.56,11.95,,8.90,,, NC,, NC
CH3-8,2019-09-07T04:00:00Z,-79.08,53.94,3.56,12.02,,8.93,,, NC,, NC
CH3-8,2019-09-07T05:00:00Z,-79.08,53.94,3.56,10.76,,9.19,,, NC,, NC
CH3-8,2019-09-07T06:00:00Z,-79.08,53.94,3.56,9.57,,9.35,,, NC,, NC
CH3-8,2019-09-07T07:00:00Z,-79.08,53.94,3.56,9.18,,9.37,,, NC,, NC
CH3-8,2019-09-07T08:00:00Z,-79.08,53.94,3.56,9.13,,9.39,,, NC,, NC
CH3-8,2019-09-07T09:00:00Z,-79.08,53.94,3.56,9.12,,9.39,,, NC,, NC
CH3-8,2019-09-07T10:00:00Z,-79.08,53.94,3.56,9.09,,9.40,,, NC,, NC
CH3-8,2019-09-07T11:00:00Z,-79.08,53.94,3.56,10.48,,9.19,,, NC,, NC
CH3-8,2019-09-07T12:00:00Z,-79.08,53.94,3.56,13.46,,8.67,,, NC,, NC
CH3-8,2019-09-07T13:00:00Z,-79.08,53.94,3.56,14.32,,8.44,,, NC,, NC
CH3-8,2019-09-07T14:00:00Z,-79.08,53.94,3.56,15.48,,8.23,,, NC,, NC
CH3-8,2019-09-07T15:00:00Z,-79.08,53.94,3.56,15.52,,8.27,,, NC,, NC
CH3-8,2019-09-07T16:00:00Z,-79.08,53.94,3.56,14.98,,8.39,,, NC,, NC
CH3-8,2019-09-07T17:00:00Z,-79.08,53.94,3.56,14.47,,8.65,,, NC,, NC
CH3-8,2019-09-07T18:00:00Z,-79.08,53.94,3.56,13.07,,8.95,,, NC,, NC
CH3-8,2019-09-07T19:00:00Z,-79.08,53.94,3.56,10.71,,9.49,,, NC,, NC
CH3-8,2019-09-07T20:00:00Z,-79.08,53.94,3.56,10.19,,9.70,,, NC,, NC
CH3-8,2019-09-07T21:00:00Z,-79.08,53.94,3.56,9.75,,9.88,,, NC,, NC
CH3-8,2019-09-07T22:00:00Z,-79.08,53.94,3.56,9.74,,9.70,,, NC,, NC
CH3-8,2019-09-07T23:00:00Z,-79.08,53.94,3.56,10.43,,9.41,,, NC,, NC
CH3-8,2019-09-08T00:00:00Z,-79.08,53.94,3.56,16.00,,8.18,,, NC,, NC
CH3-8,2019-09-08T01:00:00Z,-79.08,53.94,3.56,14.64,,8.49,,, NC,, NC
CH3-8,2019-09-08T02:00:00Z,-79.08,53.94,3.56,15.57,,8.27,,, NC,, NC
CH3-8,2019-09-08T03:00:00Z,-79.08,53.94,3.56,16.11,,8.13,,, NC,, NC
CH3-8,2019-09-08T04:00:00Z,-79.08,53.94,3.56,16.09,,8.14,,, NC,, NC
CH3-8,2019-09-08T05:00:00Z,-79.08,53.94,3.56,15.78,,8.19,,, NC,, NC
CH3-8,2019-09-08T06:00:00Z,-79.08,53.94,3.56,15.45,,8.43,,, NC,, NC
CH3-8,2019-09-08T07:00:00Z,-79.08,53.94,3.56,13.84,,8.83,,, NC,, NC
CH3-8,2019-09-08T08:00:00Z,-79.08,53.94,3.56,11.70,,8.98,,, NC,, NC
CH3-8,2019-09-08T09:00:00Z,-79.08,53.94,3.56,9.86,,9.06,,, NC,, NC
CH3-8,2019-09-08T10:00:00Z,-79.08,53.94,3.56,10.64,,9.10,,, NC,, NC
CH3-8,2019-09-08T11:00:00Z,-79.08,53.94,3.56,12.04,,9.07,,, NC,, NC
CH3-8,2019-09-08T12:00:00Z,-79.08,53.94,3.56,14.59,,8.62,,, NC,, NC
CH3-8,2019-09-08T13:00:00Z,-79.08,53.94,3.56,16.26,,8.14,,, NC,, NC
CH3-8,2019-09-08T14:00:00Z,-79.08,53.94,3.56,16.78,,8.03,,, NC,, NC
CH3-8,2019-09-08T15:00:00Z,-79.08,53.94,3.56,14.79,,8.53,,, NC,, NC
CH3-8,2019-09-08T16:00:00Z,-79.08,53.94,3.56,13.71,,8.93,,, NC,, NC
CH3-8,2019-09-08T17:00:00Z,-79.08,53.94,3.56,13.62,,8.96,,, NC,, NC
CH3-8,2019-09-08T18:00:00Z,-79.08,53.94,3.56,12.75,,9.22,,, NC,, NC
CH3-8,2019-09-08T19:00:00Z,-79.08,53.94,3.56,12.54,,9.30,,, NC,, NC
CH3-8,2019-09-08T20:00:00Z,-79.08,53.94,3.56,11.48,,9.71,,, NC,, NC
CH3-8,2019-09-08T21:00:00Z,-79.08,53.94,3.56,11.04,,9.71,,, NC,, NC
CH3-8,2019-09-08T22:00:00Z,-79.08,53.94,3.56,10.74,,9.70,,, NC,, NC
CH3-8,2019-09-08T23:00:00Z,-79.08,53.94,3.56,10.63,,9.64,,, NC,, NC
CH3-8,2019-09-09T00:00:00Z,-79.08,53.94,3.56,11.23,,9.60,,, NC,, NC
CH3-8,2019-09-09T01:00:00Z,-79.08,53.94,3.56,13.27,,9.05,,, NC,, NC
CH3-8,2019-09-09T02:00:00Z,-79.08,53.94,3.56,14.59,,8.72,,, NC,, NC
CH3-8,2019-09-09T03:00:00Z,-79.08,53.94,3.56,15.87,,8.37,,, NC,, NC
CH3-8,2019-09-09T04:00:00Z,-79.08,53.94,3.56,16.47,,8.23,,, NC,, NC
CH3-8,2019-09-09T05:00:00Z,-79.08,53.94,3.56,17.03,,8.09,,, NC,, NC
CH3-8,2019-09-09T06:00:00Z,-79.08,53.94,3.56,16.80,,8.12,,, NC,, NC
CH3-8,2019-09-09T07:00:00Z,-79.08,53.94,3.56,17.14,,8.05,,, NC,, NC
CH3-8,2019-09-09T08:00:00Z,-79.08,53.94,3.56,16.96,,8.16,,, NC,, NC
CH3-8,2019-09-09T09:00:00Z,-79.08,53.94,3.56,16.60,,8.28,,, NC,, NC
CH3-8,2019-09-09T10:00:00Z,-79.08,53.94,3.56,16.31,,8.32,,, NC,, NC
CH3-8,2019-09-09T11:00:00Z,-79.08,53.94,3.56,16.59,,8.17,,, NC,, NC
CH3-8,2019-09-09T12:00:00Z,-79.08,53.94,3.56,16.83,,8.09,,, NC,, NC
CH3-8,2019-09-09T13:00:00Z,-79.08,53.94,3.56,16.90,,8.24,,, NC,, NC
CH3-8,2019-09-09T14:00:00Z,-79.08,53.94,3.56,16.92,,8.28,,, NC,, NC
CH3-8,2019-09-09T15:00:00Z,-79.08,53.94,3.56,17.05,,8.23,,, NC,, NC
CH3-8,2019-09-09T16:00:00Z,-79.08,53.94,3.56,15.91,,8.51,,, NC,, NC
CH3-8,2019-09-09T17:00:00Z,-79.08,53.94,3.56,15.72,,8.58,,, NC,, NC
CH3-8,2019-09-09T18:00:00Z,-79.08,53.94,3.56,15.42,,8.68,,, NC,, NC
CH3-8,2019-09-09T19:00:00Z,-79.08,53.94,3.56,12.64,,9.17,,, NC,, NC
CH3-8,2019-09-09T20:00:00Z,-79.08,53.94,3.56,11.60,,9.26,,, NC,, NC
CH3-8,2019-09-09T21:00:00Z,-79.08,53.94,3.56,11.66,,9.35,,, NC,, NC
CH3-8,2019-09-09T22:00:00Z,-79.08,53.94,3.56,11.46,,9.40,,, NC,, NC
CH3-8,2019-09-09T23:00:00Z,-79.08,53.94,3.56,11.17,,9.44,,, NC,, NC
CH3-8,2019-09-10T00:00:00Z,-79.08,53.94,3.56,11.08,,9.36,,, NC,, NC
CH3-8,2019-09-10T01:00:00Z,-79.08,53.94,3.56,10.97,,9.37,,, NC,, NC
CH3-8,2019-09-10T02:00:00Z,-79.08,53.94,3.56,11.13,,9.42,,, NC,, NC
CH3-8,2019-09-10T03:00:00Z,-79.08,53.94,3.56,11.34,,9.34,,, NC,, NC
CH3-8,2019-09-10T04:00:00Z,-79.08,53.94,3.56,11.19,,9.25,,, NC,, NC
CH3-8,2019-09-10T05:00:00Z,-79.08,53.94,3.56,12.55,,8.88,,, NC,, NC
CH3-8,2019-09-10T06:00:00Z,-79.08,53.94,3.56,11.71,,8.95,,, NC,, NC
CH3-8,2019-09-10T07:00:00Z,-79.08,53.94,3.56,11.27,,8.97,,, NC,, NC
CH3-8,2019-09-10T08:00:00Z,-79.08,53.94,3.56,10.75,,9.01,,, NC,, NC
CH3-8,2019-09-10T09:00:00Z,-79.08,53.94,3.56,10.84,,9.00,,, NC,, NC
CH3-8,2019-09-10T10:00:00Z,-79.08,53.94,3.56,10.54,,8.88,,, NC,, NC
CH3-8,2019-09-10T11:00:00Z,-79.08,53.94,3.56,10.31,,8.93,,, NC,, NC
CH3-8,2019-09-10T12:00:00Z,-79.08,53.94,3.56,10.35,,8.95,,, NC,, NC
CH3-8,2019-09-10T13:00:00Z,-79.08,53.94,3.56,10.33,,8.95,,, NC,, NC
CH3-8,2019-09-10T14:00:00Z,-79.08,53.94,3.56,10.58,,9.03,,, NC,, NC
CH3-8,2019-09-10T15:00:00Z,-79.08,53.94,3.56,10.89,,9.02,,, NC,, NC
CH3-8,2019-09-10T16:00:00Z,-79.08,53.94,3.56,13.18,,8.85,,, NC,, NC
CH3-8,2019-09-10T17:00:00Z,-79.08,53.94,3.56,13.14,,8.83,,, NC,, NC
CH3-8,2019-09-10T18:00:00Z,-79.08,53.94,3.56,11.69,,9.07,,, NC,, NC
CH3-8,2019-09-10T19:00:00Z,-79.08,53.94,3.56,10.95,,9.24,,, NC,, NC
CH3-8,2019-09-10T20:00:00Z,-79.08,53.94,3.56,10.65,,9.25,,, NC,, NC
CH3-8,2019-09-10T21:00:00Z,-79.08,53.94,3.56,10.63,,9.32,,, NC,, NC
CH3-8,2019-09-10T22:00:00Z,-79.08,53.94,3.56,10.51,,9.49,,, NC,, NC
CH3-8,2019-09-10T23:00:00Z,-79.08,53.94,3.56,10.22,,9.55,,, NC,, NC
CH3-8,2019-09-11T00:00:00Z,-79.08,53.94,3.56,10.28,,9.69,,, NC,, NC
CH3-8,2019-09-11T01:00:00Z,-79.08,53.94,3.56,10.21,,9.73,,, NC,, NC
CH3-8,2019-09-11T02:00:00Z,-79.08,53.94,3.56,10.21,,9.70,,, NC,, NC
CH3-8,2019-09-11T03:00:00Z,-79.08,53.94,3.56,10.21,,9.65,,, NC,, NC
CH3-8,2019-09-11T04:00:00Z,-79.08,53.94,3.56,12.95,,8.98,,, NC,, NC
CH3-8,2019-09-11T05:00:00Z,-79.08,53.94,3.56,12.85,,8.82,,, NC,, NC
CH3-8,2019-09-11T06:00:00Z,-79.08,53.94,3.56,14.41,,8.58,,, NC,, NC
CH3-8,2019-09-11T07:00:00Z,-79.08,53.94,3.56,17.25,,7.89,,, NC,, NC
CH3-8,2019-09-11T08:00:00Z,-79.08,53.94,3.56,17.39,,7.92,,, NC,, NC
CH3-8,2019-09-11T09:00:00Z,-79.08,53.94,3.56,17.30,,7.92,,, NC,, NC
CH3-8,2019-09-11T10:00:00Z,-79.08,53.94,3.56,17.26,,8.00,,, NC,, NC
CH3-8,2019-09-11T11:00:00Z,-79.08,53.94,3.56,15.62,,8.36,,, NC,, NC
CH3-8,2019-09-11T12:00:00Z,-79.08,53.94,3.56,13.02,,8.87,,, NC,, NC
CH3-8,2019-09-11T13:00:00Z,-79.08,53.94,3.56,11.81,,9.06,,, NC,, NC
CH3-8,2019-09-11T14:00:00Z,-79.08,53.94,3.56,11.62,,9.07,,, NC,, NC
CH3-8,2019-09-11T15:00:00Z,-79.08,53.94,3.56,15.69,,8.47,,, NC,, NC
CH3-8,2019-09-11T16:00:00Z,-79.08,53.94,3.56,15.93,,8.58,,, NC,, NC
CH3-8,2019-09-11T17:00:00Z,-79.08,53.94,3.56,17.69,,7.58,,, NC,, NC
CH3-8,2019-09-11T18:00:00Z,-79.08,53.94,3.56,17.87,,7.88,,, NC,, NC
CH3-8,2019-09-11T19:00:00Z,-79.08,53.94,3.56,17.55,,8.04,,, NC,, NC
CH3-8,2019-09-11T20:00:00Z,-79.08,53.94,3.56,16.75,,8.05,,, NC,, NC
CH3-8,2019-09-11T21:00:00Z,-79.08,53.94,3.56,15.81,,8.32,,, NC,, NC
CH3-8,2019-09-11T22:00:00Z,-79.08,53.94,3.56,12.72,,8.98,,, NC,, NC
CH3-8,2019-09-11T23:00:00Z,-79.08,53.94,3.56,11.93,,8.98,,, NC,, NC
CH3-8,2019-09-12T00:00:00Z,-79.08,53.94,3.56,10.86,,8.90,,, NC,, NC
CH3-8,2019-09-12T01:00:00Z,-79.08,53.94,3.56,10.50,,8.78,,, NC,, NC
CH3-8,2019-09-12T02:00:00Z,-79.08,53.94,3.56,10.38,,8.68,,, NC,, NC
CH3-8,2019-09-12T03:00:00Z,-79.08,53.94,3.56,10.13,,8.80,,, NC,, NC
CH3-8,2019-09-12T04:00:00Z,-79.08,53.94,3.56,10.23,,8.88,,, NC,, NC
CH3-8,2019-09-12T05:00:00Z,-79.08,53.94,3.56,16.94,,7.83,,, NC,, NC
CH3-8,2019-09-12T06:00:00Z,-79.08,53.94,3.56,17.20,,7.72,,, NC,, NC
CH3-8,2019-09-12T07:00:00Z,-79.08,53.94,3.56,16.40,,7.84,,, NC,, NC